Location: Lucerne Valley
(34.4439°N, 116.9669°E)
Time: 00:52:28
(UTC-07:00)

OTV 5 (USA 277) - Pass Details

Date: 09 October 2017
Orbit: 404 x 417 km, 43.0° (Epoch: 07 September)

Event Time Altitude Azimuth Distance (km) Brightness Sun altitude
Rises 05:12:35 0° 267° (W) 2,346 ? -30.9°
Reaches altitude 10° 05:14:51 10° 278° (W) 1,484 ? -31.3°
Enters shadow 05:15:09 12° 280° (W) 1,376 ? -31.4°
